• In Russia
  • List of Countries
  • For 7 days
  • Water Temperature
  • Satellite Maps
  • Weather Map
  • Weather Widgets
  • user-avatar
    Login

    Hourly Weather Nakhchivan

    Today, 29 April, Saturday

    Time Temperature Precipitation Wind Pressure Humidity
    00:00 +15°C° 0.1 mm 1 mps 689 mmHg 62%
    01:00 +15°C° 0 mm 1 mps 689 mmHg 63%
    02:00 +14°C° 0 mm 1 mps 689 mmHg 65%
    03:00 +14°C° 0 mm 1 mps 688 mmHg 69%
    04:00 +14°C° 0 mm 1 mps 688 mmHg 68%
    05:00 +14°C° 0 mm 1 mps 688 mmHg 68%
    06:00 +14°C° 0 mm 1 mps 688 mmHg 67%
    07:00 +16°C° 0 mm 1 mps 688 mmHg 60%
    08:00 +19°C° 0 mm 1 mps 688 mmHg 53%
    09:00 +21°C° 0 mm 1 mps 689 mmHg 47%
    10:00 +21°C° 0.1 mm 2 mps 688 mmHg 43%
    11:00 +23°C° 0.1 mm 2 mps 688 mmHg 40%
    12:00 +24°C° 0.1 mm 2 mps 688 mmHg 36%
    13:00 +25°C° 0.1 mm 2 mps 688 mmHg 34%
    14:00 +25°C° 0.1 mm 2 mps 688 mmHg 32%
    15:00 +25°C° 0 mm 2 mps 687 mmHg 31%
    16:00 +25°C° 0.2 mm 2 mps 687 mmHg 34%
    17:00 +24°C° 0.2 mm 2 mps 687 mmHg 36%
    18:00 +24°C° 0.2 mm 2 mps 687 mmHg 39%
    19:00 +21°C° 0.2 mm 2 mps 687 mmHg 45%
    20:00 +19°C° 0.2 mm 2 mps 687 mmHg 50%
    21:00 +18°C° 0.2 mm 2 mps 687 mmHg 56%
    22:00 +17°C° 0 mm 2 mps 687 mmHg 57%
    23:00 +16°C° 0 mm 2 mps 687 mmHg 59%

    Tomorrow, 30 April, Sunday

    Time Temperature Precipitation Wind Pressure Humidity
    00:00 +16°C° 0 mm 2 mps 687 mmHg 60%
    01:00 +15°C° 0 mm 1 mps 687 mmHg 60%
    02:00 +15°C° 0 mm 1 mps 687 mmHg 61%
    03:00 +14°C° 0 mm 1 mps 686 mmHg 61%
    04:00 +14°C° 0 mm 1 mps 687 mmHg 60%
    05:00 +15°C° 0 mm 1 mps 687 mmHg 59%
    06:00 +15°C° 0 mm 1 mps 687 mmHg 58%
    07:00 +18°C° 0 mm 1 mps 687 mmHg 51%
    08:00 +20°C° 0 mm 1 mps 688 mmHg 43%
    09:00 +22°C° 0 mm 1 mps 688 mmHg 36%
    10:00 +23°C° 0 mm 1 mps 688 mmHg 33%
    11:00 +24°C° 0 mm 1 mps 688 mmHg 30%
    12:00 +25°C° 0 mm 1 mps 688 mmHg 26%
    13:00 +26°C° 0 mm 1 mps 688 mmHg 25%
    14:00 +26°C° 0 mm 2 mps 688 mmHg 24%
    15:00 +27°C° 0 mm 2 mps 687 mmHg 22%
    16:00 +26°C° 0 mm 2 mps 687 mmHg 25%
    17:00 +25°C° 0 mm 1 mps 687 mmHg 27%
    18:00 +24°C° 0 mm 1 mps 687 mmHg 29%
    19:00 +23°C° 0 mm 1 mps 687 mmHg 32%
    20:00 +21°C° 0 mm 2 mps 688 mmHg 35%
    21:00 +19°C° 0 mm 2 mps 688 mmHg 37%
    22:00 +18°C° 0 mm 2 mps 688 mmHg 39%
    23:00 +18°C° 0 mm 2 mps 688 mmHg 40%

    Day after tomorrow, 1 May, Monday

    Time Temperature Precipitation Wind Pressure Humidity
    00:00 +17°C° 0 mm 2 mps 687 mmHg 42%
    01:00 +16°C° 0 mm 1 mps 687 mmHg 43%
    02:00 +16°C° 0 mm 1 mps 687 mmHg 45%
    03:00 +15°C° 0 mm 1 mps 687 mmHg 46%
    04:00 +15°C° 0 mm 1 mps 687 mmHg 47%
    05:00 +15°C° 0 mm 1 mps 687 mmHg 47%
    06:00 +16°C° 0 mm 1 mps 687 mmHg 47%
    07:00 +19°C° 0 mm 1 mps 688 mmHg 40%
    08:00 +21°C° 0 mm 1 mps 688 mmHg 34%
    09:00 +23°C° 0 mm 1 mps 689 mmHg 27%
    10:00 +25°C° 0 mm 1 mps 689 mmHg 25%
    11:00 +26°C° 0 mm 1 mps 689 mmHg 23%
    12:00 +27°C° 0 mm 1 mps 689 mmHg 20%
    13:00 +28°C° 0 mm 2 mps 688 mmHg 19%
    14:00 +28°C° 0 mm 2 mps 688 mmHg 18%
    15:00 +29°C° 0 mm 2 mps 688 mmHg 17%
    16:00 +28°C° 0 mm 2 mps 687 mmHg 20%
    17:00 +27°C° 0 mm 2 mps 687 mmHg 23%
    18:00 +26°C° 0 mm 2 mps 687 mmHg 26%
    19:00 +25°C° 0 mm 2 mps 687 mmHg 29%
    20:00 +23°C° 0 mm 2 mps 687 mmHg 33%
    21:00 +21°C° 0 mm 2 mps 687 mmHg 36%
    22:00 +20°C° 0 mm 2 mps 687 mmHg 40%
    23:00 +19°C° 0 mm 2 mps 687 mmHg 44%

    2 May, Tuesday

    Time Temperature Precipitation Wind Pressure Humidity
    00:00 +19°C° 0 mm 2 mps 687 mmHg 48%
    01:00 +18°C° 0 mm 2 mps 687 mmHg 49%
    02:00 +18°C° 0 mm 2 mps 687 mmHg 50%
    03:00 +18°C° 0 mm 2 mps 687 mmHg 51%
    04:00 +19°C° 0.1 mm 1 mps 687 mmHg 53%
    05:00 +19°C° 0.1 mm 1 mps 687 mmHg 54%
    06:00 +19°C° 0.1 mm 1 mps 687 mmHg 56%
    07:00 +20°C° 0.1 mm 1 mps 688 mmHg 52%
    08:00 +21°C° 0.1 mm 1 mps 688 mmHg 47%
    09:00 +23°C° 0.1 mm 1 mps 688 mmHg 43%
    10:00 +24°C° 0 mm 1 mps 688 mmHg 40%
    11:00 +25°C° 0 mm 2 mps 688 mmHg 37%
    12:00 +26°C° 0 mm 2 mps 688 mmHg 35%
    13:00 +27°C° 0.1 mm 2 mps 688 mmHg 33%
    14:00 +27°C° 0.1 mm 2 mps 687 mmHg 32%
    15:00 +28°C° 0.1 mm 2 mps 687 mmHg 31%
    16:00 +27°C° 0.2 mm 2 mps 687 mmHg 33%
    17:00 +26°C° 0.2 mm 2 mps 687 mmHg 36%
    18:00 +26°C° 0.2 mm 2 mps 687 mmHg 39%
    19:00 +24°C° 0.2 mm 2 mps 687 mmHg 45%
    20:00 +23°C° 0.2 mm 2 mps 687 mmHg 50%
    21:00 +20°C° 0.2 mm 2 mps 687 mmHg 56%
    22:00 +20°C° 0.6 mm 2 mps 687 mmHg 60%
    23:00 +19°C° 0.6 mm 2 mps 687 mmHg 64%

    3 May, Wednesday

    Time Temperature Precipitation Wind Pressure Humidity
    00:00 +18°C° 0.6 mm 2 mps 686 mmHg 68%
    01:00 +19°C° 0.2 mm 1 mps 686 mmHg 71%
    02:00 +18°C° 0.2 mm 1 mps 686 mmHg 74%
    03:00 +16°C° 0.2 mm 1 mps 686 mmHg 78%
    04:00 +16°C° 0.1 mm 1 mps 686 mmHg 77%
    05:00 +16°C° 0.1 mm 1 mps 686 mmHg 77%
    06:00 +16°C° 0.1 mm 1 mps 686 mmHg 77%
    07:00 +19°C° 0.1 mm 1 mps 686 mmHg 68%
    08:00 +20°C° 0.1 mm 1 mps 686 mmHg 60%
    09:00 +22°C° 0.1 mm 1 mps 686 mmHg 51%
    10:00 +23°C° 0 mm 1 mps 686 mmHg 45%
    11:00 +25°C° 0 mm 2 mps 686 mmHg 39%
    12:00 +26°C° 0 mm 2 mps 686 mmHg 33%
    13:00 +27°C° 0 mm 2 mps 685 mmHg 30%
    14:00 +27°C° 0 mm 1 mps 685 mmHg 28%
    15:00 +28°C° 0 mm 1 mps 685 mmHg 25%
    16:00 +26°C° 0.5 mm 2 mps 685 mmHg 33%
    17:00 +24°C° 0.5 mm 3 mps 684 mmHg 41%
    18:00 +21°C° 0.5 mm 4 mps 684 mmHg 48%
    19:00 +21°C° 0.1 mm 3 mps 684 mmHg 51%
    20:00 +20°C° 0.1 mm 2 mps 685 mmHg 55%
    21:00 +20°C° 0.1 mm 1 mps 685 mmHg 58%
    22:00 +20°C° 0 mm 1 mps 685 mmHg 60%
    23:00 +19°C° 0 mm 1 mps 684 mmHg 62%

    4 May, Thursday

    Time Temperature Precipitation Wind Pressure Humidity
    00:00 +16°C° 0 mm 0 mps 684 mmHg 64%
    01:00 +16°C° 0 mm 0 mps 684 mmHg 65%
    02:00 +16°C° 0 mm 1 mps 683 mmHg 65%
    03:00 +16°C° 0 mm 1 mps 683 mmHg 66%
    04:00 +16°C° 0 mm 1 mps 683 mmHg 64%
    05:00 +16°C° 0 mm 1 mps 684 mmHg 63%
    06:00 +16°C° 0 mm 1 mps 684 mmHg 62%
    07:00 +19°C° 0.1 mm 1 mps 684 mmHg 55%
    08:00 +21°C° 0.1 mm 1 mps 685 mmHg 48%
    09:00 +22°C° 0.1 mm 1 mps 685 mmHg 41%
    10:00 +23°C° 0 mm 1 mps 685 mmHg 38%
    11:00 +24°C° 0 mm 1 mps 685 mmHg 35%
    12:00 +25°C° 0 mm 1 mps 685 mmHg 32%
    13:00 +26°C° 0 mm 1 mps 685 mmHg 31%
    14:00 +26°C° 0 mm 2 mps 685 mmHg 29%
    15:00 +27°C° 0 mm 2 mps 684 mmHg 28%
    16:00 +26°C° 0 mm 2 mps 684 mmHg 30%
    17:00 +26°C° 0 mm 2 mps 685 mmHg 32%
    18:00 +25°C° 0 mm 2 mps 685 mmHg 34%
    19:00 +23°C° 0 mm 2 mps 685 mmHg 38%
    20:00 +21°C° 0 mm 2 mps 685 mmHg 41%
    21:00 +20°C° 0 mm 1 mps 685 mmHg 45%
    22:00 +20°C° 0 mm 1 mps 685 mmHg 46%
    23:00 +19°C° 0 mm 1 mps 685 mmHg 47%
    Show more